星链-5458 (STARLINK-5458 )

导读 | 豆包AI

STARLINK-5458是美国太空探索技术公司(SpaceX)星链(Starlink)星座的成员卫星,于2022年12月17日发射升空,属于星链互联网星座组网卫星。星链通过在低地球轨道部署大量卫星,旨在为全球提供高速低延迟互联网服务,尤其覆盖偏远、基础设施薄弱区域,STARLINK-5458的入轨进一步扩充了星座规模,助力全球网络覆盖能力提升。

基本信息
目录编号:
54764
目录名称:
STARLINK-5458
国际标识:
2022-175G
轨道中心:
EARTH
卫星名称:
星链-5458
卫星全名:
星链-5458 (STARLINK-5458 )
卫星状态:
在轨 (已飞行1184 天)
发射日期:
2022-12-17 UTC
国别 :
美国 (US)
星等 :
--
轨道信息
数据来源 国际轨道数据
星历时间: 2026-03-15T05:07:17+0800
14小时前
查看轨道信息
半长轴: 6917.889km
偏心率: 0.0001286
轨道倾角: 53.219°
近地点辐角 88.337°
升交点赤经 20.750°
平近点角 271.777°
近地点: 538.862km
远地点: 540.642km
周期: 95.438分钟
每日圈数: 15.088374
详细信息
固有亮度:
5
最大亮度:
2.5
卫星平台:
Starlink v1.5
覆盖范围:
全球
运营商:
太空探索技术公司
运营商所在国:
美国
制造商(研发单位):
太空探索技术公司
制造商所在国:
美国
使用方式:
暂无
卫星简介
星链(Starlink)计划是由太空探索技术公司(SpaceX)提出的一个巨型低轨卫星互联网星座项目,计划在2019年至2024年间在太空搭建由约1.2万颗卫星组成的“星链”网络,其中1584颗将部署在地球上空550千米处的近地轨道,并从2020年开始工作。该卫星仍在工作。
2D轨道图
3D轨道图
轨道高度分析图
轨道倾角分析图
轨道综合分析图
查看轨道综合分析图